KINEIS-3E

Last updated on Thu Oct 23 2025 00:02:49 GMT+0000 (Coordinated Universal Time)

1 61222U 24172C 25295.52505189 .00003778 00000+0 60503-3 0 9998 2 61222 98.0290 23.2678 0001258 121.7533 238.3797 14.72334551 58387
UTC large
Height (km)
Speed (km/s)
/
Latitude / Longitude
Inclination (degrees)
Orbital Period (minutes)
Azimuth
Elevation
Range (km)
Doppler Factor

Next 0 passes for location: London (51.5072 / 0.1276)

Sorry there are no passes over London.